This is the latest recevied weather packets stored in our database for station/object XE2RCS-34. If no packets are shown the sender has not sent any weather packets the latest 1 day(s).
| Time | Temp. | Humidity | Pressure | Rain* | Wind** | Luminosity | Snow |
|---|---|---|---|---|---|---|---|
| 1777919006 | 23.89° C | 50% | 1046.9 hPa | - | - | - | - |
| 1777918106 | 23.89° C | 52% | 1047.1 hPa | - | - | - | - |
| 1777917206 | 23.33° C | 52% | 1047.2 hPa | - | - | - | - |
| 1777916306 | 22.78° C | 52% | 1047.1 hPa | - | - | - | - |
| 1777915406 | 22.22° C | 56% | 1047.2 hPa | - | - | - | - |
| 1777914506 | 21.67° C | 56% | 1047.3 hPa | - | - | - | - |
| 1777913606 | 21.11° C | 56% | 1047.3 hPa | - | - | - | - |
| 1777912706 | 20.56° C | 56% | 1047.5 hPa | - | - | - | - |
| 1777911806 | 20° C | 56% | 1047.7 hPa | - | - | - | - |
| 1777910907 | 19.44° C | 56% | 1047.7 hPa | - | - | - | - |
| 1777910006 | 18.89° C | 56% | 1047.9 hPa | - | - | - | - |
| 1777909107 | 18.33° C | 56% | 1047.9 hPa | - | - | - | - |
| 1777908205 | 17.78° C | 56% | 1047.8 hPa | - | - | - | - |
| 1777907305 | 17.78° C | 55% | 1047.8 hPa | - | - | - | - |
| 1777906405 | 17.22° C | 54% | 1047.8 hPa | - | - | - | - |
| 1777905506 | 17.22° C | 52% | 1047.7 hPa | - | - | - | - |
| 1777904605 | 16.67° C | 52% | 1047.4 hPa | - | - | - | - |
| 1777903705 | 16.67° C | 53% | 1047.2 hPa | - | - | - | - |
| 1777902808 | 16.11° C | 53% | 1047.3 hPa | - | - | - | - |
| 1777901908 | 16.11° C | 53% | 1047.1 hPa | - | - | - | - |
| 1777901007 | 16.11° C | 53% | 1046.9 hPa | - | - | - | - |
| 1777900108 | 15.56° C | 54% | 1046.7 hPa | - | - | - | - |
| 1777899207 | 15.56° C | 55% | 1046.6 hPa | - | - | - | - |
| 1777898308 | 15.56° C | 55% | 1046.5 hPa | - | - | - | - |
| 1777897407 | 15.56° C | 55% | 1046.4 hPa | - | - | - | - |
* Rain since midnight (hover to see other rain measurements)
** Current wind speed in m/s (hover to see current wind gust speed)